Tracking 19149 objects as of 20-Apr-2018
HD Live streaming from Space Station
objects crossing your sky now

BEIDOU 3M3

Track BEIDOU 3M3 now!
BEIDOU 3M3 is classified as:


NORAD ID: 43107
Int'l Code: 2018-003A
Perigee: 21,520.3 km
Apogee: 21,549.7 km
Inclination: 55.0 °
Period: 773.2 minutes
Semi major axis: 27905 km
RCS: Unknown
Launch date: January 11, 2018
Source: People's Republic of China (PRC)
Launch site: Xichang Space Center, China (XSC)
aabbcc
Your satellite tracking list
Your tracking list is empty




NASA's NSSDC Master Catalog

Two Line Element Set (TLE):
1 43107U 18003A   18109.59622250 -.00000052 +00000-0 +00000-0 0  9995
2 43107 055.0488 044.7102 0005259 002.2058 260.4162 01.86233046001840
Source of the keplerian elements: AFSPC